CZ-8A R/B

Last updated on Mon Sep 21 2026 00:02:09 GMT+0000 (Coordinated Universal Time)

1 66004U 25231K 26263.56997337 .00000006 00000+0 60584-4 0 9999 2 66004 50.0065 353.4962 0116802 200.0849 159.5449 14.30183358 48596
UTC large
Height (km)
Speed (km/s)
/
Latitude / Longitude
Inclination (degrees)
Orbital Period (minutes)
Azimuth
Elevation
Range (km)
Doppler Factor

Next 0 passes for location: London (51.5072 / 0.1276)

No passes found over London.
CZ-8A R/B